• In Hungary
  • List of Countries
  • For 7 days
  • Water Temperature
  • Satellite Maps
  • Weather Map
  • News
  • Weather Widgets
  • user-avatar
    Login

    Hourly Weather Marianowo

    Today, 23 November, Thursday

    Time Temperature Precipitation Wind Pressure Humidity
    00:00 +4°C° 0 mm 3 mps 750 mmHg 91%
    01:00 +4°C° 0 mm 3 mps 750 mmHg 91%
    02:00 +4°C° 0 mm 3 mps 749 mmHg 91%
    03:00 +4°C° 0 mm 3 mps 749 mmHg 91%
    04:00 +3°C° 0 mm 3 mps 749 mmHg 91%
    05:00 +3°C° 0 mm 4 mps 749 mmHg 91%
    06:00 +3°C° 0 mm 4 mps 749 mmHg 91%
    07:00 +3°C° 0 mm 4 mps 749 mmHg 91%
    08:00 +4°C° 0 mm 4 mps 749 mmHg 87%
    09:00 +5°C° 0 mm 4 mps 749 mmHg 83%
    10:00 +6°C° 0 mm 4 mps 749 mmHg 79%
    11:00 +6°C° 0 mm 5 mps 749 mmHg 75%
    12:00 +7°C° 0 mm 5 mps 749 mmHg 72%
    13:00 +8°C° 0 mm 5 mps 749 mmHg 68%
    14:00 +8°C° 0 mm 4 mps 749 mmHg 70%
    15:00 +7°C° 0 mm 4 mps 749 mmHg 72%
    16:00 +6°C° 0 mm 4 mps 749 mmHg 74%
    17:00 +6°C° 0 mm 4 mps 749 mmHg 74%
    18:00 +6°C° 0 mm 4 mps 749 mmHg 74%
    19:00 +6°C° 0 mm 4 mps 749 mmHg 74%
    20:00 +6°C° 0 mm 5 mps 750 mmHg 74%
    21:00 +6°C° 0 mm 5 mps 750 mmHg 74%
    22:00 +6°C° 0 mm 5 mps 750 mmHg 74%
    23:00 +6°C° 0 mm 5 mps 751 mmHg 76%

    Tomorrow, 24 November, Friday

    Time Temperature Precipitation Wind Pressure Humidity
    00:00 +5°C° 0 mm 4 mps 751 mmHg 77%
    01:00 +5°C° 0 mm 4 mps 751 mmHg 78%
    02:00 +5°C° 0 mm 4 mps 751 mmHg 80%
    03:00 +5°C° 0 mm 4 mps 751 mmHg 81%
    04:00 +5°C° 0 mm 4 mps 751 mmHg 83%
    05:00 +5°C° 0 mm 4 mps 752 mmHg 84%
    06:00 +5°C° 0 mm 3 mps 752 mmHg 86%
    07:00 +5°C° 0 mm 3 mps 752 mmHg 88%
    08:00 +5°C° 0 mm 3 mps 752 mmHg 85%
    09:00 +6°C° 0 mm 4 mps 752 mmHg 82%
    10:00 +7°C° 0 mm 4 mps 752 mmHg 79%
    11:00 +8°C° 0 mm 4 mps 751 mmHg 77%
    12:00 +10°C° 0 mm 4 mps 751 mmHg 75%
    13:00 +9°C° 0 mm 5 mps 751 mmHg 73%
    14:00 +9°C° 0 mm 5 mps 750 mmHg 75%
    15:00 +8°C° 0 mm 5 mps 750 mmHg 78%
    16:00 +8°C° 0 mm 5 mps 750 mmHg 81%
    17:00 +8°C° 0 mm 5 mps 750 mmHg 80%
    18:00 +8°C° 0 mm 5 mps 750 mmHg 79%
    19:00 +8°C° 0 mm 6 mps 750 mmHg 78%
    20:00 +8°C° 0 mm 6 mps 750 mmHg 78%
    21:00 +8°C° 0 mm 6 mps 750 mmHg 78%
    22:00 +8°C° 0 mm 6 mps 750 mmHg 78%
    23:00 +8°C° 0 mm 5 mps 750 mmHg 79%

    Day after tomorrow, 25 November, Saturday

    Time Temperature Precipitation Wind Pressure Humidity
    00:00 +8°C° 0 mm 5 mps 751 mmHg 79%
    01:00 +8°C° 0 mm 5 mps 751 mmHg 79%
    02:00 +7°C° 0 mm 4 mps 751 mmHg 82%
    03:00 +8°C° 0 mm 3 mps 751 mmHg 86%
    04:00 +7°C° 0 mm 3 mps 752 mmHg 89%
    05:00 +7°C° 0.1 mm 2 mps 752 mmHg 90%
    06:00 +6°C° 0.1 mm 2 mps 752 mmHg 90%
    07:00 +6°C° 0.1 mm 2 mps 752 mmHg 90%
    08:00 +6°C° 0.3 mm 2 mps 752 mmHg 89%
    09:00 +6°C° 0.3 mm 2 mps 752 mmHg 88%
    10:00 +6°C° 0.3 mm 2 mps 751 mmHg 87%
    11:00 +5°C° 0.7 mm 3 mps 751 mmHg 88%
    12:00 +5°C° 0.7 mm 3 mps 750 mmHg 88%
    13:00 +5°C° 0.7 mm 4 mps 750 mmHg 89%
    14:00 +5°C° 0.5 mm 4 mps 749 mmHg 89%
    15:00 +5°C° 0.5 mm 4 mps 749 mmHg 90%
    16:00 +5°C° 0.5 mm 4 mps 749 mmHg 90%
    17:00 +5°C° 0.8 mm 4 mps 748 mmHg 90%
    18:00 +5°C° 0.8 mm 4 mps 748 mmHg 90%
    19:00 +5°C° 0.8 mm 4 mps 747 mmHg 89%
    20:00 +4°C° 0.7 mm 4 mps 747 mmHg 88%
    21:00 +3°C° 0.7 mm 5 mps 747 mmHg 87%
    22:00 +3°C° 0.7 mm 5 mps 747 mmHg 86%
    23:00 +2°C° 0.2 mm 5 mps 747 mmHg 86%

    26 November, Sunday

    Time Temperature Precipitation Wind Pressure Humidity
    00:00 +2°C° 0.2 mm 5 mps 748 mmHg 85%
    01:00 +2°C° 0.2 mm 5 mps 748 mmHg 85%
    02:00 +2°C° 0.2 mm 5 mps 749 mmHg 83%
    03:00 +2°C° 0.2 mm 6 mps 749 mmHg 82%
    04:00 +2°C° 0.2 mm 6 mps 750 mmHg 80%
    05:00 +2°C° 0.1 mm 5 mps 750 mmHg 81%
    06:00 +1°C° 0.1 mm 5 mps 751 mmHg 82%
    07:00 +1°C° 0.1 mm 4 mps 752 mmHg 84%
    08:00 +1°C° 0 mm 4 mps 753 mmHg 81%
    09:00 +3°C° 0 mm 4 mps 753 mmHg 79%
    10:00 +3°C° 0 mm 4 mps 754 mmHg 77%
    11:00 +2°C° 0 mm 5 mps 754 mmHg 74%
    12:00 +3°C° 0 mm 5 mps 754 mmHg 71%
    13:00 +3°C° 0 mm 5 mps 754 mmHg 69%
    14:00 +3°C° 0 mm 4 mps 754 mmHg 72%
    15:00 +3°C° 0 mm 4 mps 755 mmHg 75%
    16:00 +2°C° 0 mm 3 mps 755 mmHg 78%
    17:00 +1°C° 0 mm 4 mps 755 mmHg 80%
    18:00 0°C° 0 mm 4 mps 755 mmHg 81%
    19:00 0°C° 0 mm 4 mps 755 mmHg 82%
    20:00 0°C° 0 mm 4 mps 755 mmHg 83%
    21:00 -1°C° 0 mm 5 mps 755 mmHg 83%
    22:00 -1°C° 0 mm 5 mps 755 mmHg 84%
    23:00 -1°C° 0 mm 5 mps 755 mmHg 84%

    27 November, Monday

    Time Temperature Precipitation Wind Pressure Humidity
    00:00 -1°C° 0 mm 5 mps 755 mmHg 85%
    01:00 -1°C° 0 mm 5 mps 755 mmHg 85%
    02:00 -1°C° 0 mm 5 mps 755 mmHg 85%
    03:00 -1°C° 0 mm 5 mps 754 mmHg 85%
    04:00 -1°C° 0 mm 5 mps 754 mmHg 85%
    05:00 -1°C° 0 mm 5 mps 754 mmHg 86%
    06:00 -1°C° 0 mm 5 mps 754 mmHg 86%
    07:00 -1°C° 0 mm 5 mps 755 mmHg 87%
    08:00 -2°C° 0 mm 6 mps 755 mmHg 85%
    09:00 -1°C° 0 mm 6 mps 755 mmHg 83%
    10:00 -1°C° 0 mm 6 mps 755 mmHg 81%
    11:00 +1°C° 0 mm 6 mps 755 mmHg 80%
    12:00 +1°C° 0 mm 6 mps 755 mmHg 79%
    13:00 +2°C° 0 mm 6 mps 754 mmHg 78%
    14:00 +1°C° 0 mm 5 mps 754 mmHg 79%
    15:00 +1°C° 0 mm 5 mps 754 mmHg 80%
    16:00 +1°C° 0 mm 5 mps 754 mmHg 81%
    17:00 +1°C° 0 mm 4 mps 754 mmHg 80%
    18:00 +1°C° 0 mm 4 mps 754 mmHg 80%
    19:00 +1°C° 0 mm 4 mps 754 mmHg 80%
    20:00 +1°C° 0 mm 4 mps 754 mmHg 81%
    21:00 +1°C° 0 mm 4 mps 754 mmHg 82%
    22:00 +1°C° 0 mm 4 mps 753 mmHg 83%
    23:00 0°C° 0 mm 4 mps 753 mmHg 83%

    28 November, Tuesday

    Time Temperature Precipitation Wind Pressure Humidity
    00:00 0°C° 0 mm 4 mps 753 mmHg 83%
    01:00 0°C° 0 mm 4 mps 752 mmHg 83%
    02:00 0°C° 0 mm 5 mps 752 mmHg 83%
    03:00 -1°C° 0 mm 5 mps 751 mmHg 83%
    04:00 -1°C° 0 mm 5 mps 751 mmHg 82%
    05:00 -1°C° 0.1 mm 5 mps 750 mmHg 82%
    06:00 0°C° 0.1 mm 5 mps 750 mmHg 82%
    07:00 0°C° 0.1 mm 5 mps 749 mmHg 82%
    08:00 -1°C° 0.2 mm 6 mps 749 mmHg 82%
    09:00 -1°C° 0.2 mm 6 mps 749 mmHg 82%
    10:00 +1°C° 0.2 mm 6 mps 749 mmHg 83%
    11:00 +1°C° 0.3 mm 6 mps 748 mmHg 83%
    12:00 +2°C° 0.3 mm 6 mps 748 mmHg 83%
    13:00 +2°C° 0.3 mm 5 mps 747 mmHg 83%
    14:00 +2°C° 0.1 mm 5 mps 747 mmHg 83%
    15:00 +2°C° 0.1 mm 5 mps 747 mmHg 83%
    16:00 +2°C° 0.1 mm 5 mps 747 mmHg 84%
    17:00 +2°C° 0 mm 5 mps 747 mmHg 84%
    18:00 +1°C° 0 mm 5 mps 747 mmHg 84%
    19:00 +1°C° 0 mm 5 mps 747 mmHg 85%
    20:00 +1°C° 0 mm 5 mps 746 mmHg 85%
    21:00 0°C° 0 mm 5 mps 746 mmHg 86%
    22:00 0°C° 0 mm 5 mps 746 mmHg 86%
    23:00 0°C° 0.1 mm 5 mps 746 mmHg 83%
    Show more